Weather History for Hebron, NE

Change the Weather History Date:

Wednesday, December 26, 2012

  Actual Average Record
Temperature  
Mean Temperature 12 °F -  
Max Temperature 22 °F 35 °F 60 °F (1956)
Min Temperature 2 °F 14 °F -10 °F (1983)
Degree Days  
Heating Degree Days 53    
Moisture  
Dew Point 6 °F    
Average Humidity 78    
Maximum Humidity 88    
Minimum Humidity 60    
Precipitation  
Precipitation 0.00 in - - ()
Sea Level Pressure  
Sea Level Pressure 30.21 in    
Wind  
Wind Speed 4 mph (NE)    
Max Wind Speed 7 mph    
Max Gust Speed -    
Visibility 10 miles    
Events      
Averages and records for this station are not official NWS values.
T = Trace of Precipitation, MM = Missing Value Source: NWS Daily Summary

Daily Weather History Graph

Daily Weather History Graph

Search for Another Location

Airport:

Trip Planner

Search our weather history database for the weather conditions in past years. The results will help you decide how hot, cold, wet, or windy it might be!

Date:

Astronomy

Dec. 26, 2012 Rise Set
Actual Time 7:51 AM CST 5:11 PM CST
Civil Twilight 7:20 AM CST 5:41 PM CST
Nautical Twilight 6:46 AM CST 6:15 PM CST
Astronomical Twilight 6:13 AM CST 6:48 PM CST
Moon 4:05 PM CST (12/26) 6:15 AM CST (12/26)
Length of Visible Light 10h 20m
Length of Day
9h 19m
Waxing Gibbous, 97% of the Moon is Illuminated
Dec 26
Waxing Gibbous
Dec 28
Full
Jan 4
Last Quarter
Jan 11
New
Jan 18
First Quarter

Hourly Weather History & Observations

Time (CST) Temp. Windchill Dew Point Humidity Pressure Visibility Wind Dir Wind Speed Gust Speed Precip Events Conditions
12:15 AM 6.8 °F -3.5 °F 3.0 °F 84% 30.34 in 10.0 mi NNW 5.8 mph - N/A   Clear
12:35 AM 6.8 °F -3.5 °F 2.8 °F 84% 30.34 in 10.0 mi NNW 5.8 mph - N/A   Clear
12:55 AM 6.3 °F - 2.3 °F 84% 30.34 in 10.0 mi Calm Calm - N/A   Clear
1:15 AM 5.9 °F - 2.1 °F 84% 30.33 in 10.0 mi Calm Calm - N/A   Clear
1:35 AM 6.1 °F - 2.3 °F 84% 30.33 in 10.0 mi Calm Calm - N/A   Clear
1:55 AM 6.4 °F -2.4 °F 2.3 °F 83% 30.33 in 10.0 mi North 4.6 mph - N/A   Clear
2:15 AM 6.3 °F -2.6 °F 2.1 °F 83% 30.33 in 10.0 mi NNE 4.6 mph - N/A   Clear
2:35 AM 6.3 °F -0.7 °F 1.9 °F 82% 30.33 in 10.0 mi NNE 3.5 mph - N/A   Clear
2:55 AM 6.3 °F -0.7 °F 1.9 °F 82% 30.32 in 10.0 mi NNE 3.5 mph - N/A   Clear
3:15 AM 6.4 °F -3.9 °F 2.1 °F 82% 30.32 in 10.0 mi North 5.8 mph - N/A   Clear
3:35 AM 5.9 °F -3.0 °F 1.6 °F 82% 30.31 in 10.0 mi North 4.6 mph - N/A   Clear
3:55 AM 4.5 °F - 0.5 °F 84% 30.31 in 10.0 mi Calm Calm - N/A   Clear
4:15 AM 4.1 °F -3.2 °F 0.5 °F 85% 30.30 in 10.0 mi North 3.5 mph - N/A   Clear
4:35 AM 5.0 °F - 1.0 °F 84% 30.29 in 10.0 mi Calm Calm - N/A   Clear
4:55 AM 4.8 °F -4.3 °F 1.0 °F 84% 30.28 in 10.0 mi North 4.6 mph - N/A   Clear
5:15 AM 4.8 °F -4.3 °F 0.9 °F 84% 30.27 in 10.0 mi NNE 4.6 mph - N/A   Clear
5:35 AM 4.1 °F -6.7 °F 0.3 °F 84% 30.25 in 10.0 mi NE 5.8 mph - N/A   Clear
5:55 AM 3.7 °F -5.5 °F 0.1 °F 85% 30.24 in 10.0 mi NE 4.6 mph - N/A   Clear
6:15 AM 3.7 °F - -0.0 °F 84% 30.24 in 10.0 mi Calm Calm - N/A   Clear
6:35 AM 3.6 °F - -0.2 °F 84% 30.24 in 10.0 mi Calm Calm - N/A   Clear
6:55 AM 3.2 °F - -0.4 °F 85% 30.24 in 10.0 mi Calm Calm - N/A   Clear
7:15 AM 3.2 °F -6.2 °F -0.4 °F 85% 30.26 in 10.0 mi WNW 4.6 mph - N/A   Clear
7:35 AM 2.8 °F -8.2 °F -0.8 °F 85% 30.27 in 10.0 mi NW 5.8 mph - N/A   Clear
7:55 AM 2.7 °F -6.8 °F -0.9 °F 85% 30.27 in 10.0 mi NW 4.6 mph - N/A   Clear
8:15 AM 3.0 °F -8.0 °F -0.8 °F 84% 30.27 in 10.0 mi WNW 5.8 mph - N/A   Clear
8:35 AM 3.7 °F -5.5 °F -0.4 °F 83% 30.28 in 10.0 mi WNW 4.6 mph - N/A   Clear
8:55 AM 4.6 °F -4.5 °F 0.5 °F 83% 30.27 in 10.0 mi NW 4.6 mph - N/A   Clear
9:15 AM 5.5 °F -3.4 °F 1.4 °F 83% 30.27 in 10.0 mi NW 4.6 mph - N/A   Clear
9:35 AM 6.8 °F -2.0 °F 2.3 °F 82% 30.27 in 10.0 mi NNW 4.6 mph - N/A   Clear
9:55 AM 8.2 °F 1.6 °F 3.6 °F 81% 30.27 in 10.0 mi NNW 3.5 mph - N/A   Clear
10:15 AM 9.5 °F 1.2 °F 4.5 °F 80% 30.27 in 10.0 mi North 4.6 mph - N/A   Clear
10:35 AM 10.8 °F 2.7 °F 5.4 °F 79% 30.27 in 10.0 mi North 4.6 mph - N/A   Clear
10:55 AM 11.3 °F 3.3 °F 5.4 °F 77% 30.26 in 10.0 mi NE 4.6 mph - N/A   Clear
11:15 AM 13.1 °F 5.4 °F 6.4 °F 75% 30.24 in 10.0 mi NE 4.6 mph - N/A   Clear
11:35 AM 13.8 °F 8.0 °F 7.0 °F 74% 30.24 in 10.0 mi NE 3.5 mph - N/A   Clear
11:55 AM 14.5 °F 7.1 °F 7.0 °F 72% 30.23 in 10.0 mi NE 4.6 mph - N/A   Clear
12:15 PM 15.8 °F - 7.9 °F 71% 30.22 in 10.0 mi Calm Calm - N/A   Clear
12:35 PM 16.5 °F - 8.2 °F 70% 30.20 in 10.0 mi Calm Calm - N/A   Clear
12:55 PM 17.4 °F 9.1 °F 8.4 °F 68% 30.19 in 10.0 mi ENE 5.8 mph - N/A   Clear
1:15 PM 18.5 °F 9.3 °F 9.0 °F 66% 30.18 in 7.0 mi East 6.9 mph - N/A   Clear
1:35 PM 18.7 °F 11.9 °F 9.0 °F 66% 30.17 in 7.0 mi ENE 4.6 mph - N/A   Clear
1:55 PM 20.3 °F 15.4 °F 9.9 °F 64% 30.17 in 10.0 mi East 3.5 mph - N/A   Clear
2:15 PM 20.8 °F 14.4 °F 9.9 °F 63% 30.16 in 10.0 mi ENE 4.6 mph - N/A   Clear
2:35 PM 21.2 °F - 10.4 °F 63% 30.16 in 10.0 mi Calm Calm - N/A   Clear
2:55 PM 21.7 °F 17.0 °F 9.9 °F 60% 30.16 in 10.0 mi East 3.5 mph - N/A   Clear
3:15 PM 21.7 °F 15.5 °F 10.4 °F 62% 30.15 in 10.0 mi NE 4.6 mph - N/A   Clear
3:35 PM 22.5 °F 17.8 °F 10.8 °F 61% 30.16 in 10.0 mi East 3.5 mph - N/A   Clear
3:55 PM 22.1 °F - 10.4 °F 61% 30.17 in 10.0 mi Calm Calm - N/A   Clear
4:15 PM 22.6 °F 14.3 °F 11.1 °F 61% 30.15 in 10.0 mi East 6.9 mph - N/A   Clear
4:35 PM 22.1 °F 15.9 °F 11.5 °F 64% 30.14 in 10.0 mi East 4.6 mph - N/A   Clear
4:55 PM 21.2 °F 12.6 °F 11.5 °F 66% 30.13 in 10.0 mi East 6.9 mph - N/A   Clear
5:15 PM 21.2 °F 14.9 °F 11.3 °F 66% 30.12 in 10.0 mi East 4.6 mph - N/A   Clear
5:35 PM 20.1 °F - 11.3 °F 69% 30.13 in 10.0 mi Calm Calm - N/A   Clear
6:15 PM 19.2 °F 12.5 °F 11.7 °F 72% 30.12 in 10.0 mi East 4.6 mph - N/A   Clear
6:35 PM 18.7 °F - 11.8 °F 75% 30.13 in 10.0 mi Calm Calm - N/A   Clear
6:55 PM 18.0 °F - 11.5 °F 76% 30.13 in 10.0 mi Calm Calm - N/A   Clear
7:15 PM 15.6 °F - 10.4 °F 80% 30.13 in 10.0 mi Calm Calm - N/A   Clear
7:35 PM 16.7 °F 9.6 °F 11.7 °F 81% 30.12 in 10.0 mi East 4.6 mph - N/A   Clear
7:55 PM 16.2 °F 10.6 °F 11.3 °F 81% 30.12 in 10.0 mi East 3.5 mph - N/A   Clear
8:15 PM 15.8 °F 8.6 °F 11.1 °F 82% 30.12 in 10.0 mi East 4.6 mph - N/A   Clear
8:35 PM 15.3 °F 9.6 °F 10.4 °F 81% 30.12 in 10.0 mi ESE 3.5 mph - N/A   Clear
8:55 PM 14.0 °F - 10.0 °F 84% 30.12 in 10.0 mi Calm Calm - N/A   Clear
9:15 PM 12.4 °F - 8.6 °F 85% 30.12 in 10.0 mi Calm Calm - N/A   Clear
9:35 PM 12.7 °F 6.7 °F 9.5 °F 87% 30.11 in 10.0 mi East 3.5 mph - N/A   Clear
9:55 PM 12.4 °F 6.3 °F 9.3 °F 88% 30.10 in 10.0 mi ESE 3.5 mph - N/A   Clear
10:15 PM 12.9 °F 6.9 °F 9.5 °F 86% 30.10 in 10.0 mi ESE 3.5 mph - N/A   Clear
10:35 PM 12.7 °F 6.7 °F 9.3 °F 86% 30.09 in 10.0 mi ESE 3.5 mph - N/A   Scattered Clouds
10:55 PM 13.6 °F 6.0 °F 10.0 °F 86% 30.09 in 10.0 mi ESE 4.6 mph - N/A   Scattered Clouds
11:15 PM 14.7 °F 7.3 °F 10.8 °F 84% 30.08 in 10.0 mi ESE 4.6 mph - N/A   Mostly Cloudy
11:35 PM 15.3 °F 5.4 °F 11.1 °F 84% 30.08 in 10.0 mi ESE 6.9 mph - N/A   Mostly Cloudy
11:55 PM 15.6 °F 7.0 °F 11.3 °F 83% 30.07 in 10.0 mi ESE 5.8 mph - N/A   Mostly Cloudy